White Plains, CT

2:51 PM EST on December 05, 2019 (GMT -0500)
Westchester County

Weather History for KHPN - November, 2019

Change the Weather History Date:

Tuesday, November 12, 2019

  Actual Average Record
Temperature  
Mean Temperature 38 °F -  
Max Temperature 53 °F 48 °F 64 °F (2010)
Min Temperature 23 °F 34 °F 25 °F (2017)
Degree Days  
Heating Degree Days 26    
Moisture  
Dew Point 27 °F    
Average Humidity 66    
Maximum Humidity 96    
Minimum Humidity 41    
Precipitation  
Precipitation 0.02 in - - ()
Sea Level Pressure  
Sea Level Pressure 29.87 in    
Wind  
Wind Speed 11 mph ()    
Max Wind Speed 25 mph    
Max Gust Speed 32 mph    
Visibility 9.1 miles    
Events Rain , Snow    
Averages and records for this station are not official NWS values.
T = Trace of Precipitation, MM = Missing Value Source: Averaged Metar Reports

Daily Weather History Graph

Daily Weather History Graph

Search for Another Location

Airport or City:

Astronomy

Nov. 12, 2019 Rise Set
Actual Time 6:38 AM EST 4:38 PM EST
Civil Twilight 6:09 AM EST 5:08 PM EST
Nautical Twilight 5:36 AM EST 5:41 PM EST
Astronomical Twilight 5:03 AM EST 6:13 PM EST
Moon 5:04 PM EST (11/12) 6:26 AM EST (11/12)
Length of Visible Light 10h 58m
Length of Day
10h 00m
Full, 100% of the Moon is Illuminated
Nov 12
Full
Nov 19
Last Quarter
Nov 26
New
Dec 4
First Quarter
Dec 12
Full

Hourly Weather History & Observations

Time (EST) Temp. Windchill Dew Point Humidity Pressure Visibility Wind Dir Wind Speed Gust Speed Precip Events Conditions
12:56 AM 50.0 °F - 48.9 °F 96% 29.77 in 8.0 mi SE 4.6 mph - N/A   Scattered Clouds
1:56 AM 50.0 °F - 48.0 °F 93% 29.74 in 10.0 mi South 3.5 mph - N/A   Clear
2:56 AM 51.1 °F - 46.9 °F 86% 29.72 in 10.0 mi SSE 3.5 mph - N/A   Partly Cloudy
3:56 AM 52.0 °F - 46.0 °F 80% 29.70 in 10.0 mi Variable 3.5 mph - N/A   Scattered Clouds
4:56 AM 53.1 °F - 43.0 °F 69% 29.70 in 10.0 mi Variable 4.6 mph - 0.00 in   Clear
5:56 AM 53.1 °F - 42.1 °F 66% 29.68 in 10.0 mi SW 5.8 mph - N/A   Scattered Clouds
6:56 AM 53.1 °F - 42.1 °F 66% 29.69 in 10.0 mi Variable 6.9 mph - N/A   Mostly Cloudy
7:18 AM 52.0 °F - 44.1 °F 74% 29.71 in 7.0 mi WNW 12.7 mph - 0.00 in Rain Light Rain
7:56 AM 44.1 °F 35.2 °F 39.9 °F 85% 29.75 in 8.0 mi NW 23.0 mph 28.8 mph 0.01 in Rain Light Rain
8:08 AM 43.0 °F 34.5 °F 39.0 °F 86% 29.75 in 7.0 mi NW 19.6 mph - 0.00 in Rain Light Rain
8:56 AM 39.0 °F 28.0 °F 35.1 °F 86% 29.78 in 7.0 mi NW 25.3 mph 31.1 mph 0.00 in Rain Light Rain
9:56 AM 37.0 °F 27.4 °F 33.1 °F 86% 29.78 in 10.0 mi NW 17.3 mph 28.8 mph 0.01 in   Mostly Cloudy
10:56 AM 37.0 °F 27.0 °F 30.0 °F 76% 29.83 in 10.0 mi NW 18.4 mph 27.6 mph N/A   Mostly Cloudy
11:56 AM 36.0 °F 26.3 °F 28.0 °F 73% 29.85 in 9.0 mi WNW 16.1 mph - 0.00 in Snow Light Snow
12:36 PM 34.0 °F 22.7 °F 25.0 °F 70% 29.85 in 2.0 mi NW 19.6 mph 27.6 mph 0.00 in Snow Light Snow
12:56 PM 34.0 °F 23.0 °F 24.1 °F 67% 29.88 in 9.0 mi NW 18.4 mph 25.3 mph 0.00 in   Mostly Cloudy
1:56 PM 32.0 °F 19.8 °F 19.0 °F 59% 29.90 in 10.0 mi NW 20.7 mph 26.5 mph N/A   Mostly Cloudy
2:56 PM 30.9 °F 19.8 °F 17.1 °F 57% 29.93 in 10.0 mi NW 16.1 mph 26.5 mph N/A   Mostly Cloudy
3:56 PM 30.9 °F 19.4 °F 15.1 °F 52% 29.95 in 10.0 mi NW 17.3 mph 28.8 mph N/A   Scattered Clouds
4:56 PM 30.9 °F 21.7 °F 14.0 °F 50% 29.99 in 10.0 mi NW 11.5 mph 24.2 mph N/A   Scattered Clouds
5:56 PM 30.0 °F 19.1 °F 12.0 °F 47% 30.01 in 10.0 mi NW 15.0 mph 27.6 mph N/A   Scattered Clouds
6:56 PM 28.9 °F 15.8 °F 10.9 °F 47% 30.05 in 10.0 mi NNW 20.7 mph 28.8 mph N/A   Scattered Clouds
7:56 PM 27.0 °F 14.3 °F 7.0 °F 43% 30.08 in 10.0 mi NW 17.3 mph 23.0 mph N/A   Clear
8:56 PM 25.0 °F 12.2 °F 3.9 °F 41% 30.11 in 10.0 mi NW 16.1 mph 26.5 mph N/A   Clear
9:56 PM 24.1 °F 12.0 °F 3.9 °F 42% 30.12 in 10.0 mi NW 13.8 mph 20.7 mph N/A   Clear
10:56 PM 24.1 °F 8.7 °F 3.9 °F 42% 30.13 in 10.0 mi NW 23.0 mph 32.2 mph N/A   Clear
11:56 PM 23.0 °F 10.1 °F 8.1 °F 53% 30.14 in 10.0 mi NW 15.0 mph - N/A   Clear